When you browse on this site, cookies collect data to enhance your experience and personalize the content and advertising you see.
Visit our Privacy Policy to learn more. By continuing to use the site, you agree to this use of cookies and data.
  • In Austria
  • List of Countries
  • For 7 days
  • Water Temperature
  • Weather Map
  • News
  • Weather Widgets
  • user-avatar
    Login

    Hourly Weather Vila Real

    Today, 30 March, Monday

    Time Temperature Precipitation Wind Pressure Humidity
    00:00 +9°C° 0 mm 2 mps 720 mmHg 74%
    01:00 +9°C° 0 mm 3 mps 719 mmHg 75%
    02:00 +8°C° 0 mm 3 mps 719 mmHg 75%
    03:00 +7°C° 0.1 mm 4 mps 719 mmHg 78%
    04:00 +6°C° 0.1 mm 4 mps 719 mmHg 80%
    05:00 +6°C° 0.1 mm 4 mps 719 mmHg 83%
    06:00 +5°C° 0.1 mm 4 mps 719 mmHg 82%
    07:00 +5°C° 0.1 mm 5 mps 719 mmHg 81%
    08:00 +3°C° 0.1 mm 5 mps 719 mmHg 80%
    09:00 +5°C° 0 mm 6 mps 719 mmHg 69%
    10:00 +7°C° 0 mm 6 mps 719 mmHg 58%
    11:00 +8°C° 0 mm 7 mps 719 mmHg 47%
    12:00 +9°C° 0 mm 7 mps 718 mmHg 46%
    13:00 +9°C° 0 mm 7 mps 717 mmHg 44%
    14:00 +10°C° 0 mm 7 mps 717 mmHg 43%
    15:00 +9°C° 0 mm 7 mps 716 mmHg 43%
    16:00 +8°C° 0 mm 7 mps 716 mmHg 43%
    17:00 +8°C° 0 mm 7 mps 716 mmHg 43%
    18:00 +6°C° 0 mm 7 mps 716 mmHg 44%
    19:00 +5°C° 0 mm 7 mps 716 mmHg 46%
    20:00 +2°C° 0 mm 8 mps 716 mmHg 47%
    21:00 +3°C° 0 mm 7 mps 716 mmHg 48%
    22:00 +2°C° 0 mm 6 mps 716 mmHg 49%
    23:00 +1°C° 0 mm 6 mps 716 mmHg 50%

    Tomorrow, 31 March, Tuesday

    Time Temperature Precipitation Wind Pressure Humidity
    00:00 +1°C° 0 mm 5 mps 715 mmHg 52%
    01:00 +1°C° 0 mm 5 mps 714 mmHg 55%
    02:00 0°C° 0 mm 4 mps 714 mmHg 57%
    03:00 0°C° 0.1 mm 4 mps 713 mmHg 64%
    04:00 0°C° 0.1 mm 4 mps 713 mmHg 71%
    05:00 -1°C° 0.1 mm 4 mps 713 mmHg 78%
    06:00 0°C° 0.1 mm 4 mps 713 mmHg 78%
    07:00 +1°C° 0.1 mm 4 mps 712 mmHg 78%
    08:00 +1°C° 0.1 mm 4 mps 712 mmHg 78%
    09:00 +3°C° 0 mm 4 mps 712 mmHg 77%
    10:00 +4°C° 0 mm 4 mps 712 mmHg 76%
    11:00 +4°C° 0 mm 3 mps 712 mmHg 75%
    12:00 +5°C° 0.1 mm 3 mps 712 mmHg 77%
    13:00 +7°C° 0.1 mm 3 mps 712 mmHg 78%
    14:00 +7°C° 0.1 mm 2 mps 711 mmHg 80%
    15:00 +8°C° 0.1 mm 2 mps 711 mmHg 82%
    16:00 +9°C° 0.1 mm 2 mps 711 mmHg 83%
    17:00 +9°C° 0.1 mm 2 mps 711 mmHg 85%
    18:00 +9°C° 1.2 mm 2 mps 711 mmHg 88%
    19:00 +8°C° 1.2 mm 2 mps 711 mmHg 92%
    20:00 +8°C° 1.2 mm 2 mps 712 mmHg 96%
    21:00 +8°C° 2.2 mm 2 mps 712 mmHg 96%
    22:00 +8°C° 2.2 mm 3 mps 712 mmHg 96%
    23:00 +8°C° 2.2 mm 3 mps 712 mmHg 96%

    Day after tomorrow, 1 April, Wednesday

    Time Temperature Precipitation Wind Pressure Humidity
    00:00 +8°C° 1.5 mm 2 mps 713 mmHg 96%
    01:00 +8°C° 1.5 mm 2 mps 713 mmHg 97%
    02:00 +8°C° 1.5 mm 2 mps 713 mmHg 97%
    03:00 +9°C° 0.3 mm 1 mps 714 mmHg 97%
    04:00 +9°C° 0.3 mm 1 mps 714 mmHg 97%
    05:00 +9°C° 0.3 mm 1 mps 715 mmHg 96%
    06:00 +9°C° 0.2 mm 1 mps 715 mmHg 95%
    07:00 +9°C° 0.2 mm 1 mps 716 mmHg 93%
    08:00 +9°C° 0.2 mm 1 mps 716 mmHg 92%
    09:00 +9°C° 0.2 mm 1 mps 717 mmHg 89%
    10:00 +9°C° 0.2 mm 1 mps 717 mmHg 86%
    11:00 +10°C° 0.2 mm 1 mps 718 mmHg 83%
    12:00 +10°C° 0.1 mm 1 mps 718 mmHg 79%
    13:00 +11°C° 0.1 mm 1 mps 718 mmHg 75%
    14:00 +12°C° 0.1 mm 1 mps 718 mmHg 70%
    15:00 +12°C° 0.1 mm 1 mps 718 mmHg 72%
    16:00 +11°C° 0.1 mm 1 mps 718 mmHg 74%
    17:00 +11°C° 0.1 mm 1 mps 718 mmHg 76%
    18:00 +10°C° 0 mm 1 mps 718 mmHg 79%
    19:00 +9°C° 0 mm 1 mps 718 mmHg 82%
    20:00 +7°C° 0 mm 0 mps 719 mmHg 86%
    21:00 +7°C° 0 mm 0 mps 719 mmHg 86%
    22:00 +7°C° 0 mm 0 mps 719 mmHg 87%
    23:00 +7°C° 0 mm 0 mps 719 mmHg 87%

    2 April, Thursday

    Time Temperature Precipitation Wind Pressure Humidity
    00:00 +6°C° 0 mm 0 mps 719 mmHg 88%
    01:00 +6°C° 0 mm 0 mps 718 mmHg 88%
    02:00 +5°C° 0 mm 0 mps 718 mmHg 89%
    03:00 +5°C° 0 mm 0 mps 718 mmHg 89%
    04:00 +5°C° 0 mm 0 mps 718 mmHg 90%
    05:00 +5°C° 0 mm 0 mps 718 mmHg 90%
    06:00 +7°C° 0 mm 0 mps 718 mmHg 84%
    07:00 +9°C° 0 mm 0 mps 718 mmHg 78%
    08:00 +10°C° 0 mm 0 mps 719 mmHg 71%
    09:00 +12°C° 0 mm 0 mps 719 mmHg 65%
    10:00 +15°C° 0 mm 1 mps 719 mmHg 59%
    11:00 +18°C° 0 mm 1 mps 719 mmHg 53%
    12:00 +18°C° 0.1 mm 1 mps 719 mmHg 53%
    13:00 +18°C° 0.1 mm 1 mps 719 mmHg 52%
    14:00 +18°C° 0.1 mm 1 mps 718 mmHg 51%
    15:00 +16°C° 0.1 mm 1 mps 718 mmHg 57%
    16:00 +16°C° 0.1 mm 1 mps 718 mmHg 62%
    17:00 +15°C° 0.1 mm 1 mps 718 mmHg 67%
    18:00 +13°C° 0 mm 1 mps 718 mmHg 73%
    19:00 +12°C° 0 mm 1 mps 719 mmHg 79%
    20:00 +9°C° 0 mm 0 mps 719 mmHg 85%
    21:00 +9°C° 0 mm 0 mps 719 mmHg 86%
    22:00 +9°C° 0 mm 0 mps 719 mmHg 87%
    23:00 +8°C° 0 mm 0 mps 719 mmHg 88%

    3 April, Friday

    Time Temperature Precipitation Wind Pressure Humidity
    00:00 +9°C° 0 mm 1 mps 719 mmHg 88%
    01:00 +9°C° 0 mm 1 mps 719 mmHg 89%
    02:00 +9°C° 0 mm 1 mps 719 mmHg 89%
    03:00 +9°C° 0 mm 1 mps 719 mmHg 90%
    04:00 +7°C° 0 mm 2 mps 719 mmHg 91%
    05:00 +7°C° 0 mm 2 mps 719 mmHg 92%
    06:00 +8°C° 0 mm 2 mps 719 mmHg 83%
    07:00 +10°C° 0 mm 2 mps 719 mmHg 74%
    08:00 +12°C° 0 mm 2 mps 719 mmHg 65%
    09:00 +14°C° 0 mm 2 mps 719 mmHg 60%
    10:00 +14°C° 0 mm 3 mps 719 mmHg 54%
    11:00 +17°C° 0 mm 3 mps 719 mmHg 49%
    12:00 +17°C° 0 mm 3 mps 718 mmHg 47%
    13:00 +18°C° 0 mm 3 mps 718 mmHg 46%
    14:00 +19°C° 0 mm 3 mps 718 mmHg 44%
    15:00 +18°C° 0 mm 2 mps 717 mmHg 49%
    16:00 +17°C° 0 mm 2 mps 717 mmHg 53%
    17:00 +17°C° 0 mm 2 mps 717 mmHg 58%
    18:00 +15°C° 0 mm 2 mps 717 mmHg 60%
    19:00 +14°C° 0 mm 2 mps 717 mmHg 62%
    20:00 +12°C° 0 mm 2 mps 717 mmHg 65%
    21:00 +12°C° 0 mm 2 mps 717 mmHg 65%
    22:00 +12°C° 0 mm 1 mps 717 mmHg 65%
    23:00 +11°C° 0 mm 1 mps 717 mmHg 65%

    4 April, Saturday

    Time Temperature Precipitation Wind Pressure Humidity
    00:00 +11°C° 0 mm 1 mps 717 mmHg 65%
    01:00 +10°C° 0 mm 2 mps 717 mmHg 65%
    02:00 +9°C° 0 mm 2 mps 716 mmHg 65%
    03:00 +9°C° 0 mm 2 mps 717 mmHg 65%
    04:00 +9°C° 0 mm 2 mps 717 mmHg 65%
    05:00 +9°C° 0 mm 2 mps 717 mmHg 65%
    06:00 +10°C° 0 mm 2 mps 717 mmHg 63%
    07:00 +12°C° 0 mm 2 mps 717 mmHg 61%
    08:00 +13°C° 0 mm 2 mps 717 mmHg 60%
    09:00 +14°C° 0 mm 3 mps 717 mmHg 56%
    10:00 +16°C° 0 mm 3 mps 718 mmHg 52%
    11:00 +17°C° 0 mm 3 mps 718 mmHg 49%
    12:00 +17°C° 0 mm 3 mps 718 mmHg 49%
    13:00 +17°C° 0 mm 3 mps 718 mmHg 49%
    14:00 +18°C° 0 mm 3 mps 718 mmHg 49%
    15:00 +16°C° 0 mm 2 mps 718 mmHg 55%
    16:00 +15°C° 0 mm 2 mps 718 mmHg 61%
    17:00 +14°C° 0 mm 1 mps 717 mmHg 66%
    18:00 +14°C° 0 mm 1 mps 718 mmHg 68%
    19:00 +13°C° 0 mm 1 mps 718 mmHg 69%
    20:00 +13°C° 0 mm 1 mps 719 mmHg 71%
    21:00 +12°C° 0 mm 0 mps 719 mmHg 73%
    22:00 +12°C° 0 mm 0 mps 719 mmHg 75%
    23:00 +11°C° 0 mm 0 mps 719 mmHg 76%
    Show more